Location: Bennemühlen
(52.5740°N, 9.7135°E)
Time: 02:52:02
(UTC+00:00)

Vanguard 2 Rocket - Pass Details

Date: 20 February 2026
Orbit: 553 x 3287 km, 32.9° (Epoch: 5 March)

Event Time Altitude Azimuth Distance (km) Brightness Sun altitude
Rises 13:37:40 0° 251° (WSW) 7,160 12.3 21.4°
Reaches altitude 10° 13:43:29 10° 243° (WSW) 5,927 12.3 20.9°
Maximum altitude 13:57:34 32° 190° (S) 3,492 11.2 19.7°
Drops below altitude 10° 14:07:12 10° 133° (SE) 4,022 10.3 18.7°
Sets 14:10:17 0° 123° (ESE) 4,659 10.5 18.4°
